Time,TemperatureF,DewpointF,PressureIn,WindDirection,WindDirectionDegrees,WindSpeedMPH,WindSpeedGustMPH,Humidity,HourlyPrecipIn,Conditions,Clouds,dailyrainin,SoftwareType,DateUTC
2013-07-22 00:02:00,71.0,65.0,29.89,NW,317,1.0,32.0,81,0.00,,,0.00,,2013-07-22 05:02:00,
2013-07-22 00:11:00,72.0,66.0,29.89,West,281,0.0,32.0,81,0.00,,,0.00,,2013-07-22 05:11:00,
2013-07-22 00:22:00,72.0,70.0,29.89,NE,39,3.0,7.0,92,0.00,,,0.00,,2013-07-22 05:22:00,
2013-07-22 00:32:00,71.0,69.0,29.89,North,8,0.0,7.0,92,0.00,,,0.00,,2013-07-22 05:32:00,
2013-07-22 00:43:00,71.0,69.0,29.89,ENE,73,0.0,7.0,92,0.00,,,0.00,,2013-07-22 05:43:00,
2013-07-22 00:52:00,71.0,69.0,29.89,NE,45,0.0,7.0,92,0.00,,,0.00,,2013-07-22 05:52:00,
2013-07-22 01:01:00,71.0,69.0,29.89,WSW,254,1.0,7.0,92,0.01,,,0.01,,2013-07-22 06:01:00,
2013-07-22 01:11:00,70.0,68.0,29.89,NNE,21,1.0,7.0,92,0.03,,,0.03,,2013-07-22 06:11:00,
2013-07-22 01:22:00,70.0,68.0,29.89,NNE,17,0.0,7.0,94,0.03,,,0.03,,2013-07-22 06:22:00,
2013-07-22 01:33:00,70.0,68.0,29.89,NNE,17,0.0,7.0,94,0.04,,,0.04,,2013-07-22 06:33:00,
2013-07-22 01:43:00,69.0,67.0,29.89,NNE,17,0.0,7.0,94,0.04,,,0.04,,2013-07-22 06:43:00,
2013-07-22 01:52:00,69.0,67.0,29.89,NNE,17,0.0,7.0,94,0.04,,,0.04,,2013-07-22 06:52:00,
2013-07-22 02:01:00,69.0,67.0,29.89,NNE,17,0.0,7.0,94,0.03,,,0.04,,2013-07-22 07:01:00,
2013-07-22 02:12:00,69.0,67.0,29.89,NNE,19,0.0,7.0,94,0.01,,,0.04,,2013-07-22 07:12:00,
2013-07-22 02:22:00,68.0,66.0,29.89,NNE,17,0.0,7.0,94,0.01,,,0.04,,2013-07-22 07:22:00,
2013-07-22 02:33:00,68.0,66.0,29.89,NNE,17,0.0,7.0,94,0.00,,,0.04,,2013-07-22 07:33:00,
2013-07-22 02:43:00,68.0,66.0,29.89,NNE,26,0.0,7.0,94,0.00,,,0.04,,2013-07-22 07:43:00,
2013-07-22 02:52:00,68.0,66.0,29.88,NNE,24,0.0,7.0,94,0.00,,,0.04,,2013-07-22 07:52:00,
2013-07-22 03:02:00,68.0,66.0,29.88,NNE,24,0.0,7.0,94,0.00,,,0.04,,2013-07-22 08:02:00,
2013-07-22 03:11:00,67.0,65.0,29.88,NNE,24,0.0,7.0,94,0.00,,,0.04,,2013-07-22 08:11:00,
2013-07-22 03:22:00,67.0,66.0,29.88,NNE,24,0.0,7.0,96,0.00,,,0.04,,2013-07-22 08:22:00,
2013-07-22 03:32:00,67.0,66.0,29.88,NNE,24,0.0,7.0,96,0.00,,,0.04,,2013-07-22 08:32:00,
2013-07-22 03:43:00,67.0,66.0,29.88,NNE,24,0.0,7.0,96,0.00,,,0.04,,2013-07-22 08:43:00,
2013-07-22 03:52:00,67.0,66.0,29.88,NNE,24,0.0,7.0,96,0.00,,,0.04,,2013-07-22 08:52:00,
2013-07-22 04:02:00,67.0,66.0,29.88,NNE,24,0.0,7.0,96,0.00,,,0.04,,2013-07-22 09:02:00,
2013-07-22 04:11:00,67.0,66.0,29.88,NNE,24,0.0,7.0,96,0.00,,,0.04,,2013-07-22 09:11:00,
2013-07-22 04:22:00,67.0,65.0,29.88,NNE,24,0.0,7.0,94,0.00,,,0.04,,2013-07-22 09:22:00,
2013-07-22 04:33:00,67.0,65.0,29.88,NNE,24,0.0,7.0,94,0.00,,,0.04,,2013-07-22 09:33:00,
2013-07-22 04:42:00,67.0,65.0,29.88,NNE,24,0.0,7.0,94,0.00,,,0.04,,2013-07-22 09:42:00,
2013-07-22 04:52:00,67.0,65.0,29.88,NNE,24,0.0,7.0,94,0.00,,,0.04,,2013-07-22 09:52:00,
2013-07-22 05:02:00,66.0,64.0,29.87,NNE,24,0.0,7.0,94,0.00,,,0.04,,2013-07-22 10:02:00,
2013-07-22 05:11:00,66.0,64.0,29.87,NNE,24,0.0,7.0,94,0.00,,,0.04,,2013-07-22 10:11:00,
2013-07-22 05:22:00,66.0,65.0,29.87,NNE,24,0.0,7.0,96,0.00,,,0.04,,2013-07-22 10:22:00,
2013-07-22 05:32:00,66.0,65.0,29.87,NNE,24,0.0,7.0,96,0.00,,,0.04,,2013-07-22 10:32:00,
2013-07-22 05:43:00,66.0,65.0,29.87,NNE,24,0.0,7.0,96,0.00,,,0.04,,2013-07-22 10:43:00,
2013-07-22 05:52:00,66.0,65.0,29.87,NNE,24,0.0,7.0,96,0.00,,,0.04,,2013-07-22 10:52:00,
2013-07-22 06:01:00,66.0,65.0,29.87,NNE,24,0.0,7.0,96,0.00,,,0.04,,2013-07-22 11:01:00,
2013-07-22 06:11:00,65.0,64.0,29.87,NNE,24,0.0,7.0,96,0.00,,,0.04,,2013-07-22 11:11:00,
2013-07-22 06:23:00,66.0,65.0,29.87,NNE,24,0.0,7.0,98,0.00,,,0.04,,2013-07-22 11:23:00,
2013-07-22 06:32:00,66.0,65.0,29.87,NNE,24,0.0,7.0,98,0.00,,,0.04,,2013-07-22 11:32:00,
2013-07-22 06:43:00,66.0,65.0,29.87,NNE,24,0.0,7.0,98,0.00,,,0.04,,2013-07-22 11:43:00,
2013-07-22 06:52:00,66.0,65.0,29.87,NNE,24,0.0,7.0,98,0.00,,,0.04,,2013-07-22 11:52:00,
2013-07-22 07:02:00,66.0,65.0,29.87,NNE,24,0.0,7.0,98,0.00,,,0.04,,2013-07-22 12:02:00,
2013-07-22 07:11:00,66.0,65.0,29.86,NNE,24,0.0,7.0,98,0.00,,,0.04,,2013-07-22 12:11:00,
2013-07-22 07:22:00,67.0,65.0,29.86,NNE,24,0.0,7.0,94,0.00,,,0.04,,2013-07-22 12:22:00,
2013-07-22 07:32:00,67.0,65.0,29.86,NNE,24,0.0,7.0,94,0.00,,,0.04,,2013-07-22 12:32:00,
2013-07-22 07:43:00,68.0,66.0,29.86,NNE,24,0.0,7.0,94,0.00,,,0.04,,2013-07-22 12:43:00,
2013-07-22 07:53:00,68.0,66.0,29.86,SSW,194,1.0,7.0,94,0.00,,,0.04,,2013-07-22 12:53:00,
2013-07-22 08:01:00,69.0,67.0,29.86,SE,131,0.0,7.0,94,0.00,,,0.04,,2013-07-22 13:01:00,
2013-07-22 08:11:00,70.0,68.0,29.84,SE,144,2.0,7.0,94,0.00,,,0.04,,2013-07-22 13:11:00,
2013-07-22 08:22:00,71.0,69.0,29.84,East,90,0.0,7.0,92,0.00,,,0.04,,2013-07-22 13:22:00,
2013-07-22 08:32:00,72.0,70.0,29.85,South,170,1.0,7.0,92,0.00,,,0.04,,2013-07-22 13:32:00,
2013-07-22 08:53:00,73.0,71.0,29.84,South,180,3.0,7.0,92,0.00,,,0.04,,2013-07-22 13:53:00,
2013-07-22 09:32:00,75.0,73.0,29.85,South,171,2.0,7.0,93,0.00,,,0.04,,2013-07-22 14:32:00,
2013-07-22 09:43:00,76.0,74.0,29.85,SSW,207,1.0,7.0,93,0.00,,,0.04,,2013-07-22 14:43:00,
2013-07-22 09:53:00,77.0,75.0,29.85,SW,224,5.0,8.0,93,0.00,,,0.04,,2013-07-22 14:53:00,
2013-07-22 10:02:00,76.0,74.0,29.85,SSW,208,1.0,8.0,93,0.00,,,0.04,,2013-07-22 15:02:00,
2013-07-22 10:11:00,78.0,76.0,29.85,SW,223,1.0,8.0,93,0.00,,,0.04,,2013-07-22 15:11:00,
2013-07-22 10:22:00,78.0,75.0,29.85,SSW,193,5.0,8.0,91,0.00,,,0.04,,2013-07-22 15:22:00,
2013-07-22 10:33:00,78.0,75.0,29.85,South,170,2.0,8.0,91,0.00,,,0.04,,2013-07-22 15:33:00,
2013-07-22 10:43:00,78.0,75.0,29.85,SW,236,5.0,8.0,91,0.00,,,0.04,,2013-07-22 15:43:00,
2013-07-22 10:52:00,78.0,75.0,29.85,NNE,20,3.0,8.0,91,0.00,,,0.04,,2013-07-22 15:52:00,
2013-07-22 11:01:00,79.0,76.0,29.85,SW,218,3.0,9.0,91,0.00,,,0.04,,2013-07-22 16:01:00,
2013-07-22 11:11:00,79.0,76.0,29.85,SSW,193,6.0,9.0,91,0.00,,,0.04,,2013-07-22 16:11:00,
2013-07-22 11:21:00,80.0,75.0,29.85,SW,226,2.0,9.0,85,0.00,,,0.04,,2013-07-22 16:21:00,
2013-07-22 11:32:00,80.0,75.0,29.85,South,184,2.0,10.0,85,0.00,,,0.04,,2013-07-22 16:32:00,
2013-07-22 11:43:00,80.0,75.0,29.85,West,270,3.0,10.0,85,0.00,,,0.04,,2013-07-22 16:43:00,
2013-07-22 11:52:00,80.0,75.0,29.85,South,174,3.0,10.0,85,0.00,,,0.04,,2013-07-22 16:52:00,
2013-07-22 12:01:00,81.0,76.0,29.85,SSW,200,3.0,11.0,85,0.00,,,0.04,,2013-07-22 17:01:00,
2013-07-22 12:11:00,80.0,75.0,29.85,SW,223,6.0,11.0,85,0.00,,,0.04,,2013-07-22 17:11:00,
2013-07-22 12:23:00,81.0,74.0,29.85,South,177,2.0,11.0,80,0.00,,,0.04,,2013-07-22 17:23:00,
2013-07-22 12:32:00,81.0,74.0,29.85,WNW,303,3.0,11.0,80,0.00,,,0.04,,2013-07-22 17:32:00,
2013-07-22 12:43:00,83.0,76.0,29.85,SW,217,2.0,11.0,80,0.00,,,0.04,,2013-07-22 17:43:00,
2013-07-22 12:52:00,83.0,76.0,29.85,South,175,2.0,11.0,80,0.00,,,0.04,,2013-07-22 17:52:00,
2013-07-22 13:04:00,83.0,76.0,29.85,WNW,299,1.0,11.0,80,0.00,,,0.04,,2013-07-22 18:04:00,
2013-07-22 13:36:00,85.0,74.0,29.85,SE,133,2.0,11.0,70,0.00,,,0.04,,2013-07-22 18:36:00,
2013-07-22 13:49:00,85.0,74.0,29.85,SSW,212,3.0,11.0,70,0.00,,,0.04,,2013-07-22 18:49:00,
2013-07-22 13:55:00,85.0,74.0,29.85,South,181,1.0,11.0,70,0.00,,,0.04,,2013-07-22 18:55:00,
2013-07-22 14:05:00,86.0,75.0,29.85,South,185,0.0,11.0,70,0.00,,,0.04,,2013-07-22 19:05:00,
2013-07-22 14:15:00,87.0,76.0,29.84,WSW,247,1.0,11.0,70,0.00,,,0.04,,2013-07-22 19:15:00,
2013-07-22 14:45:00,86.0,75.0,29.84,South,185,5.0,11.0,69,0.00,,,0.04,,2013-07-22 19:45:00,
2013-07-22 14:54:00,86.0,75.0,29.84,SW,229,5.0,11.0,69,0.00,,,0.04,,2013-07-22 19:54:00,
2013-07-22 15:04:00,87.0,76.0,29.84,SSE,159,3.0,11.0,69,0.00,,,0.04,,2013-07-22 20:04:00,
2013-07-22 15:43:00,87.0,77.0,29.83,WSW,241,2.0,11.0,73,0.00,,,0.04,,2013-07-22 20:43:00,
2013-07-22 15:52:00,86.0,76.0,29.83,South,179,5.0,11.0,73,0.00,,,0.04,,2013-07-22 20:52:00,
2013-07-22 16:22:00,87.0,76.0,29.83,SE,141,2.0,12.0,71,0.00,,,0.04,,2013-07-22 21:22:00,
2013-07-22 16:32:00,89.0,78.0,29.83,South,181,2.0,12.0,71,0.00,,,0.04,,2013-07-22 21:32:00,
2013-07-22 16:43:00,88.0,77.0,29.83,SW,226,3.0,12.0,71,0.00,,,0.04,,2013-07-22 21:43:00,
2013-07-22 16:52:00,88.0,77.0,29.83,SE,131,3.0,12.0,71,0.00,,,0.04,,2013-07-22 21:52:00,
2013-07-22 17:01:00,88.0,77.0,29.83,South,179,3.0,12.0,71,0.00,,,0.04,,2013-07-22 22:01:00,
2013-07-22 17:11:00,89.0,78.0,29.83,SSW,203,2.0,12.0,71,0.00,,,0.04,,2013-07-22 22:11:00,
2013-07-22 17:22:00,89.0,77.0,29.83,SSW,194,5.0,12.0,67,0.00,,,0.04,,2013-07-22 22:22:00,
2013-07-22 17:32:00,88.0,76.0,29.83,SW,225,6.0,12.0,67,0.00,,,0.04,,2013-07-22 22:32:00,
2013-07-22 17:43:00,87.0,75.0,29.83,ESE,104,2.0,12.0,67,0.00,,,0.04,,2013-07-22 22:43:00,
2013-07-22 17:52:00,87.0,75.0,29.82,WSW,240,6.0,12.0,67,0.00,,,0.04,,2013-07-22 22:52:00,
2013-07-22 18:01:00,88.0,76.0,29.82,SSW,202,6.0,12.0,67,0.00,,,0.04,,2013-07-22 23:01:00,
2013-07-22 18:11:00,89.0,77.0,29.82,WSW,237,5.0,12.0,67,0.00,,,0.04,,2013-07-22 23:11:00,
2013-07-22 18:22:00,88.0,78.0,29.82,SSW,210,5.0,12.0,72,0.00,,,0.04,,2013-07-22 23:22:00,
2013-07-22 18:32:00,87.0,77.0,29.82,SW,224,3.0,12.0,72,0.00,,,0.04,,2013-07-22 23:32:00,
2013-07-22 18:42:00,86.0,76.0,29.82,SSW,192,3.0,12.0,72,0.00,,,0.04,,2013-07-22 23:42:00,
2013-07-22 18:52:00,85.0,75.0,29.82,South,175,2.0,12.0,72,0.00,,,0.04,,2013-07-22 23:52:00,
2013-07-22 19:01:00,85.0,75.0,29.82,WNW,286,3.0,12.0,72,0.00,,,0.04,,2013-07-23 00:01:00,
2013-07-22 19:12:00,84.0,74.0,29.82,SSW,212,2.0,12.0,72,0.00,,,0.04,,2013-07-23 00:12:00,
2013-07-22 19:22:00,83.0,75.0,29.81,SE,129,1.0,12.0,76,0.00,,,0.04,,2013-07-23 00:22:00,
2013-07-22 19:32:00,83.0,75.0,29.81,South,177,1.0,12.0,76,0.00,,,0.04,,2013-07-23 00:32:00,
2013-07-22 19:43:00,82.0,74.0,29.81,SSE,149,1.0,12.0,76,0.00,,,0.04,,2013-07-23 00:43:00,
2013-07-22 19:52:00,82.0,74.0,29.81,SSE,165,1.0,12.0,76,0.00,,,0.04,,2013-07-23 00:52:00,
2013-07-22 20:01:00,82.0,74.0,29.81,SE,125,2.0,12.0,76,0.00,,,0.04,,2013-07-23 01:01:00,
2013-07-22 20:11:00,82.0,74.0,29.81,SSW,199,1.0,12.0,76,0.00,,,0.04,,2013-07-23 01:11:00,
2013-07-22 20:22:00,81.0,74.0,29.81,SSW,205,1.0,12.0,80,0.00,,,0.04,,2013-07-23 01:22:00,
2013-07-22 20:32:00,80.0,73.0,29.80,SSW,194,2.0,12.0,80,0.00,,,0.04,,2013-07-23 01:32:00,
2013-07-22 20:43:00,80.0,73.0,29.80,SSW,194,2.0,12.0,80,0.00,,,0.04,,2013-07-23 01:43:00,
2013-07-22 20:53:00,80.0,73.0,29.80,SE,146,1.0,12.0,80,0.00,,,0.04,,2013-07-23 01:53:00,
2013-07-22 21:02:00,80.0,73.0,29.80,SSW,211,2.0,12.0,80,0.00,,,0.04,,2013-07-23 02:02:00,
2013-07-22 21:11:00,80.0,73.0,29.80,SE,135,1.0,12.0,80,0.00,,,0.04,,2013-07-23 02:11:00,
2013-07-22 21:22:00,79.0,74.0,29.80,SSE,159,2.0,12.0,85,0.00,,,0.04,,2013-07-23 02:22:00,
2013-07-22 21:33:00,79.0,74.0,29.80,SW,231,1.0,12.0,85,0.00,,,0.04,,2013-07-23 02:33:00,
2013-07-22 21:43:00,79.0,74.0,29.80,SSE,168,0.0,12.0,85,0.00,,,0.04,,2013-07-23 02:43:00,
2013-07-22 21:53:00,77.0,72.0,29.80,NW,318,6.0,32.0,85,0.00,,,0.04,,2013-07-23 02:53:00,
2013-07-22 22:01:00,74.0,69.0,29.80,NNW,330,6.0,32.0,85,0.00,,,0.04,,2013-07-23 03:01:00,
2013-07-22 23:11:00,66.0,65.0,29.80,SSE,158,2.0,34.0,96,0.16,,,0.38,,2013-07-23 04:11:00,
2013-07-22 23:22:00,67.0,65.0,29.80,South,174,3.0,34.0,94,0.13,,,0.38,,2013-07-23 04:22:00,
2013-07-22 23:32:00,66.0,64.0,29.81,SSE,154,2.0,34.0,94,0.03,,,0.38,,2013-07-23 04:32:00,
2013-07-22 23:43:00,66.0,64.0,29.80,SSE,167,2.0,34.0,94,0.02,,,0.38,,2013-07-23 04:43:00,
2013-07-22 23:53:00,66.0,64.0,29.81,South,187,2.0,34.0,94,0.01,,,0.38,,2013-07-23 04:53:00,